Miles City, MT

12:37 PM MST on February 08, 2016 (GMT -0700)
Wiley

Weather History for KMLS - October, 2012

Change the Weather History Date:

Wednesday, October 31, 2012

  Actual Average Record
Temperature  
Mean Temperature 44 °F 40 °F  
Max Temperature 53 °F 52 °F 82 °F (1999)
Min Temperature 35 °F 28 °F 0 °F (1984)
Degree Days  
Heating Degree Days 21 25  
Month to date heating degree days 627 575  
Since 1 July heating degree days 720 811  
Cooling Degree Days 0 0  
Month to date cooling degree days 0 2  
Year to date cooling degree days 1107 730  
Moisture  
Dew Point 37 °F    
Average Humidity 78    
Maximum Humidity 92    
Minimum Humidity 63    
Precipitation  
Precipitation 0.00 in 0.02 in 0.82 in (1974)
Month to date precipitation 1.06 0.92  
Year to date precipitation 5.69 11.76  
Sea Level Pressure  
Sea Level Pressure 30.03 in    
Wind  
Wind Speed 9 mph (NE)    
Max Wind Speed 16 mph    
Max Gust Speed 20 mph    
Visibility 10 miles    
Events      
T = Trace of Precipitation, MM = Missing Value Source: NWS Daily Summary

Daily Weather History Graph

Daily Weather History Graph

Search for Another Location

Airport or City:

Trip Planner

Search our weather history database for the weather conditions in past years. The results will help you decide how hot, cold, wet, or windy it might be!

Date:

Astronomy

Oct. 31, 2012 Rise Set
Actual Time 7:44 AM MDT 5:49 PM MDT
Civil Twilight 7:12 AM MDT 6:20 PM MDT
Nautical Twilight 6:37 AM MDT 6:56 PM MDT
Astronomical Twilight 6:02 AM MDT 7:31 PM MDT
Moon 6:55 PM MDT (10/31) 9:34 AM MDT (10/31)
Length of Visible Light 11h 07m
Length of Day
10h 04m
Full, 97% of the Moon is Illuminated
Oct 31
Full
Nov 6
Last Quarter
Nov 13
New
Nov 20
First Quarter
Nov 28
Full

Hourly Weather History & Observations

Time (MDT) Temp. Windchill Dew Point Humidity Pressure Visibility Wind Dir Wind Speed Gust Speed Precip Events Conditions
12:53 AM 46.0 °F 41.4 °F 35.1 °F 66% 29.95 in 10.0 mi SSE 9.2 mph - N/A   Overcast
1:53 AM 45.0 °F 40.6 °F 36.0 °F 71% 29.94 in 10.0 mi SSE 8.1 mph - N/A   Mostly Cloudy
2:53 AM 45.0 °F 41.2 °F 36.0 °F 71% 29.94 in 10.0 mi SSE 6.9 mph - N/A   Overcast
3:53 AM 46.0 °F 42.5 °F 36.0 °F 68% 29.93 in 10.0 mi SSE 6.9 mph - N/A   Overcast
4:53 AM 46.0 °F 43.9 °F 36.0 °F 68% 29.94 in 10.0 mi SSE 4.6 mph - N/A   Overcast
5:53 AM 44.1 °F - 37.0 °F 76% 29.97 in 10.0 mi Calm Calm - N/A   Overcast
6:53 AM 42.1 °F 40.2 °F 36.0 °F 79% 30.00 in 10.0 mi West 3.5 mph - N/A   Clear
7:53 AM 41.0 °F 34.7 °F 36.0 °F 82% 30.02 in 10.0 mi WNW 10.4 mph - N/A   Clear
8:53 AM 45.0 °F 40.6 °F 37.9 °F 76% 30.05 in 10.0 mi WNW 8.1 mph - N/A   Overcast
9:53 AM 46.0 °F 41.9 °F 37.9 °F 73% 30.08 in 10.0 mi NW 8.1 mph - N/A   Overcast
10:53 AM 48.9 °F - 37.9 °F 66% 30.08 in 10.0 mi NNE 4.6 mph - N/A   Mostly Cloudy
11:53 AM 50.0 °F - 39.9 °F 68% 30.11 in 10.0 mi NNE 8.1 mph - N/A   Mostly Cloudy
1:53 PM 50.0 °F - 39.9 °F 68% 30.09 in 10.0 mi NE 8.1 mph - N/A   Overcast
2:53 PM 51.1 °F - 39.9 °F 66% 30.08 in 10.0 mi NE 10.4 mph - N/A   Partly Cloudy
3:53 PM 50.0 °F - 39.0 °F 66% 30.07 in 10.0 mi NE 12.7 mph - N/A   Clear
4:53 PM 48.9 °F - 39.0 °F 69% 30.09 in 10.0 mi NE 11.5 mph - N/A   Clear
5:53 PM 46.9 °F - 37.0 °F 68% 30.08 in 10.0 mi East 9.2 mph - N/A   Clear
6:53 PM 43.0 °F 37.2 °F 36.0 °F 76% 30.09 in 10.0 mi NE 10.4 mph - N/A   Clear
7:53 PM 39.0 °F 31.4 °F 34.0 °F 82% 30.10 in 10.0 mi NE 12.7 mph - N/A   Clear
9:53 PM 36.0 °F 27.5 °F 33.1 °F 89% 30.06 in 10.0 mi NE 12.7 mph - N/A   Clear
10:53 PM 36.0 °F 27.5 °F 34.0 °F 93% 30.05 in 7.0 mi NE 12.7 mph - N/A   Clear
11:53 PM 36.0 °F 26.7 °F 34.0 °F 93% 30.03 in 7.0 mi NE 15.0 mph - N/A   Clear